Location: *
(51.0333°S, 178.4667°E)
Time: 06:33:21
(UTC+00:00)

IRIDIUM 103 - Pass Details

Date: 15 November 2019
Orbit: 776 x 779 km, 86.4° (Epoch: 05 December)

Event Time Altitude Azimuth Distance (km) Brightness Sun altitude
Rises 09:06:05 0° 186° (S) 3,308 8.6 -11.7°
Reaches altitude 10° 09:08:28 10° 186° (S) 2,373 7.8 -12.0°
Maximum altitude 09:13:47 80° 271° (W) 809 4.5 -12.5°
Enters shadow 09:18:59 10° 358° (N) 2,316 6.3 -13.0°
